Wind_Speed
31 29 29 29 28 28 27 25 24 24 23 22 21 21 20 19 18 17 15 14 12 13 14 14 14 14 14 14 14 14 15 16 16 17 17 18 17 16 14 12 10 8 7 8 8 8 8 8 8 8 8 9 10 10 11 11 12 13 14 13 13 12 12 10 8 7 6 6 6 6 7 7 8 9 9 10 10 10 8 8 7 6 5 4 3
31 30 30 29 28 28 26 25 24 24 23 22 21 20 18 17 16 15 14 13 13 14 15 15 14 14 14 14 14 14 15 15 16 16 17 17 16 15 13 10 8 7 7 8 8 8 8 8 8 9 9 10 10 11 12 12 12 13 14 13 13 12 12 11 8 8 7 6 6 6 6 7 8 8 9 9 10 10 9 9 8 7 5 4 3
30 31 30 30 29 28 26 25 24 24 23 21 20 18 17 16 15 14 14 14 14 15 15 15 15 15 14 15 15 15 15 15 15 15 15 15 14 12 11 9 8 8 8 8 9 9 8 8 8 10 10 11 11 12 12 13 13 13 14 13 13 12 11 10 9 8 8 7 7 6 6 7 8 9 9 9 9 9 9 9 8 8 6 5 4
30 30 30 30 29 28 26 25 24 23 22 20 19 17 16 15 14 14 14 15 16 16 15 15 15 15 14 15 15 15 15 15 14 13 13 12 11 10 9 9 9 9 9 9 9 9 8 8 8 10 11 11 12 12 13 13 14 14 14 14 13 12 11 10 9 9 8 8 8 7 7 7 8 8 9 8 8 9 9 9 9 8 7 6 5
30 30 30 30 29 28 26 25 24 22 21 19 17 16 15 14 14 14 15 16 16 16 15 15 14 14 13 14 14 14 14 13 12 11 11 11 10 10 10 10 11 11 10 10 10 9 8 8 8 10 11 12 12 13 13 14 14 14 14 14 13 13 12 11 11 11 11 10 9 8 7 8 8 8 8 8 8 9 9 9 9 9 8 7 6
30 30 30 30 29 28 26 25 23 21 19 17 16 15 14 14 14 14 15 16 16 15 15 14 14 13 12 13 13 13 12 12 11 11 11 11 11 12 12 12 12 11 11 10 9 8 8 8 8 9 11 12 13 13 14 14 14 14 14 13 13 14 13 12 12 12 13 12 11 9 8 8 8 8 9 9 9 10 10 10 10 10 9 8 7
30 30 30 29 28 27 25 23 21 19 18 16 15 14 14 14 14 15 16 17 16 15 15 14 13 13 12 12 12 12 12 11 11 11 12 12 12 13 13 13 12 12 11 10 9 9 9 9 9 9 11 13 14 13 14 14 14 14 13 13 13 14 14 13 12 13 13 13 12 11 10 9 9 8 9 10 10 11 12 12 12 11 10 9 7
30 30 29 29 27 26 24 22 20 18 17 15 15 14 14 14 15 16 17 17 16 15 14 14 13 12 12 12 12 12 12 11 11 12 12 13 13 14 13 13 12 12 11 11 10 9 10 10 9 10 11 13 14 13 14 14 14 14 14 13 13 13 13 13 13 13 13 13 13 12 12 12 10 9 10 11 12 11 12 14 13 12 10 9 7
30 29 29 28 26 25 23 21 19 17 16 15 14 14 15 16 17 17 17 17 16 14 14 13 12 12 12 12 12 12 12 12 12 13 14 14 14 14 14 13 12 12 11 11 10 10 10 10 10 10 10 11 13 14 13 13 13 14 14 13 12 12 12 12 12 13 12 12 12 13 13 13 12 12 11 13 14 13 12 13 13 11 10 9 7
30 29 28 27 26 23 21 20 18 16 15 15 15 16 17 17 18 17 17 16 15 14 13 12 12 12 11 12 12 12 12 13 13 14 15 15 15 14 14 14 13 13 12 12 11 10 10 10 10 10 10 11 12 13 13 13 13 13 13 13 12 11 11 11 11 12 11 11 12 12 13 13 13 13 13 13 15 16 13 13 13 12 10 9 8
30 29 27 26 24 22 20 19 17 15 15 16 17 18 18 18 18 17 16 15 14 14 13 12 12 12 12 12 12 13 14 15 15 16 17 16 16 15 15 15 14 14 13 12 12 11 11 11 11 10 10 11 12 12 13 13 13 12 12 12 12 11 10 10 10 11 10 10 11 11 12 13 13 13 14 13 14 16 15 13 12 11 10 9 9
30 28 26 25 23 21 19 18 16 16 17 18 19 19 18 18 17 16 15 14 14 14 13 12 12 12 12 13 14 15 16 17 18 18 18 17 16 16 15 15 15 14 13 13 12 11 11 11 11 10 10 10 12 12 12 13 13 13 12 12 12 11 10 10 9 9 9 10 10 10 11 12 13 13 14 14 13 13 14 13 12 12 11 10 8
30 28 26 24 23 21 18 17 17 18 19 20 19 19 18 17 16 15 14 14 14 14 13 13 13 13 14 15 16 17 18 19 19 19 18 17 16 15 15 15 15 14 13 12 12 11 11 11 10 10 10 10 11 12 12 12 12 12 13 12 12 12 10 10 9 9 9 9 9 9 9 11 12 12 12 12 12 11 11 11 11 11 10 9 8
29 27 25 23 22 20 18 18 19 20 20 20 20 19 18 17 16 15 14 14 14 14 13 13 14 14 15 16 17 18 18 19 19 18 17 17 16 16 15 15 14 13 12 12 11 11 11 11 10 10 9 10 11 11 11 12 12 12 12 12 12 12 11 10 9 9 8 8 8 8 8 10 10 10 10 11 11 10 10 8 8 8 8 8 8
27 26 25 23 21 20 19 20 20 21 21 20 19 19 17 16 16 15 15 14 14 14 14 14 15 15 16 17 18 18 17 17 17 17 17 17 17 16 16 15 14 13 12 11 11 11 11 11 11 11 10 11 11 11 11 11 12 12 11 11 11 11 11 11 10 9 9 8 8 7 8 9 9 9 10 10 9 9 9 8 8 7 7 8 8
25 25 24 22 20 20 20 22 22 22 21 21 19 18 17 17 17 16 15 15 15 15 15 15 16 16 17 18 18 18 17 16 17 17 17 17 17 17 16 14 13 13 12 12 11 11 12 12 12 12 12 12 11 11 11 11 12 12 12 11 11 11 10 11 10 10 10 9 8 8 8 9 9 9 9 9 9 8 8 7 8 8 8 8 8
25 24 22 21 19 19 21 23 23 22 22 21 19 18 18 18 18 17 16 16 16 16 16 17 17 17 18 18 18 18 17 17 17 17 17 17 17 16 15 13 13 13 13 13 13 12 12 12 12 13 13 12 12 12 11 12 12 12 13 12 12 11 10 10 10 10 10 10 10 10 10 9 9 9 9 10 9 8 7 6 7 8 8 7 8
26 23 21 20 19 19 21 23 23 23 22 21 19 19 19 19 18 17 16 16 17 17 18 18 18 18 19 18 18 17 16 16 16 17 17 17 16 15 14 13 13 15 15 15 15 14 13 13 13 13 14 13 12 11 11 11 12 12 13 13 12 11 10 10 10 10 10 10 11 12 11 10 9 9 9 10 9 8 7 6 5 6 6 7 8
26 24 21 20 18 19 21 23 23 23 22 20 20 21 21 20 18 17 16 17 17 18 19 19 19 19 18 18 17 16 15 15 15 16 16 16 15 14 13 13 14 16 16 16 15 15 15 14 14 14 14 14 13 12 11 11 11 12 13 13 12 11 11 10 10 10 10 10 11 12 12 10 10 9 9 9 9 8 7 6 5 5 5 5 7
26 24 22 20 18 18 21 22 23 23 21 20 20 21 21 20 18 17 17 17 18 18 19 19 18 18 18 17 16 15 15 14 14 15 15 15 15 14 13 13 14 16 16 15 15 15 15 15 14 14 14 14 13 13 12 12 12 12 12 12 11 11 11 11 10 9 10 10 10 11 11 11 10 10 9 9 9 8 7 7 6 4 4 4 5
27 25 22 20 18 18 20 22 23 22 21 21 21 21 21 20 18 17 17 18 18 18 18 18 17 17 17 16 15 15 14 14 14 15 15 15 14 14 13 13 14 14 14 14 14 13 13 14 13 13 12 12 12 12 12 12 12 11 11 11 11 11 11 11 10 9 9 9 9 9 10 10 11 10 9 9 9 8 7 7 6 5 4 4 4
28 26 23 21 18 18 21 22 23 22 22 21 21 20 20 19 18 17 18 18 18 18 17 17 16 16 15 15 15 14 14 15 15 15 15 15 14 13 12 12 12 13 12 12 12 12 11 12 12 12 11 10 11 11 11 11 10 10 10 10 10 10 10 10 9 9 9 8 8 8 8 9 10 10 10 10 10 9 8 7 6 6 5 5 4
27 26 23 22 19 19 21 22 22 22 22 22 22 20 19 19 18 17 17 17 17 17 17 16 15 15 15 15 14 15 15 15 15 15 14 13 13 12 11 10 10 11 11 11 11 10 10 11 11 11 10 10 9 10 10 10 9 9 9 9 9 9 9 9 8 8 8 7 7 7 7 8 9 10 10 10 10 9 9 8 7 6 6 5 4
26 24 23 22 21 19 20 22 22 21 22 22 22 20 19 19 18 17 16 16 16 15 15 14 14 14 15 15 14 15 15 15 15 14 13 12 11 11 9 9 8 9 10 10 10 9 9 10 10 9 9 9 9 8 8 9 9 9 10 9 9 8 8 8 8 8 8 7 6 6 7 7 8 8 9 9 9 10 10 9 7 6 6 5 5
25 24 22 22 21 20 20 21 22 22 22 22 21 20 19 18 18 16 15 15 14 14 13 13 13 13 14 14 14 14 15 15 15 13 12 11 10 9 9 8 7 7 8 8 8 8 8 9 9 9 9 8 8 7 7 8 9 9 9 8 8 7 7 8 9 9 8 7 6 6 6 7 7 7 8 8 8 9 10 10 9 7 6 6 6
24 24 23 21 21 20 20 21 22 22 22 21 21 20 19 18 17 16 15 14 13 13 13 12 12 12 13 14 13 14 15 15 14 12 11 10 10 9 8 7 6 5 5 6 6 6 8 8 7 8 8 8 8 6 6 8 9 9 8 7 6 5 6 8 10 10 9 8 7 5 6 6 6 6 6 7 7 8 8 9 9 9 8 7 7
24 23 23 22 21 20 20 20 22 22 22 21 21 20 19 18 18 17 15 13 12 12 13 12 12 12 13 13 13 12 13 13 13 12 11 10 9 8 7 6 5 4 4 4 5 5 6 6 6 7 8 9 8 6 6 7 8 8 7 7 7 5 5 9 11 10 9 9 8 6 6 6 5 5 5 6 7 7 8 8 8 9 9 8 7
23 24 23 22 21 20 20 20 21 22 22 21 20 19 19 19 18 17 15 13 12 12 13 12 12 13 13 13 11 11 11 12 12 11 10 9 8 7 7 6 5 4 4 4 5 4 5 5 6 7 8 8 8 6 6 5 6 6 6 7 8 6 4 8 11 11 9 9 9 7 5 6 6 5 5 6 7 7 8 7 7 7 8 8 7
22 23 23 22 21 20 20 20 21 22 21 21 20 19 19 18 18 17 15 14 12 11 12 12 12 12 12 12 11 10 11 11 11 11 10 9 7 7 7 6 5 4 4 4 5 4 4 5 6 7 7 8 7 6 6 5 5 5 6 8 8 7 5 7 10 10 9 9 10 9 6 6 6 5 5 6 6 7 7 7 7 6 6 6 6
22 23 23 22 21 20 20 20 20 21 21 20 19 19 18 18 18 17 16 14 12 11 11 12 12 12 12 12 11 11 11 11 11 11 10 9 7 6 7 6 5 4 3 4 4 4 4 5 6 7 7 7 7 6 6 6 7 7 7 9 9 8 6 8 10 9 9 10 10 9 7 7 7 6 6 6 6 6 7 7 6 6 5 5 5
22 23 23 21 20 20 20 20 20 20 20 20 19 18 18 18 18 17 16 14 12 11 11 12 12 12 12 11 11 11 11 11 11 10 10 10 8 7 6 5 5 4 3 3 4 4 4 5 6 7 7 7 7 6 6 6 7 8 8 9 8 8 8 8 9 9 10 11 11 10 8 8 8 7 6 5 6 6 6 6 6 6 5 4 5
23 23 23 22 21 20 21 21 20 20 20 20 19 18 18 18 18 17 16 14 13 12 12 12 12 12 12 11 11 11 11 10 10 10 9 9 8 7 7 6 5 4 4 4 5 5 5 5 6 7 7 7 6 6 6 6 6 7 8 9 8 8 10 10 9 10 10 10 10 10 10 9 8 7 5 5 5 5 5 6 6 6 5 4 4
22 23 23 22 21 20 20 21 21 20 20 19 19 19 18 18 17 17 16 15 13 13 13 12 12 13 13 12 11 10 10 10 10 9 9 9 7 7 6 5 5 4 4 4 4 5 5 5 5 6 7 6 5 6 6 6 6 7 8 9 8 8 9 10 10 10 9 8 8 9 10 10 8 6 5 4 4 4 4 4 4 4 4 4 3
21 23 24 23 22 21 21 22 22 21 20 20 19 19 19 18 17 17 16 15 15 14 13 12 11 13 13 12 11 10 9 9 9 9 8 8 7 6 6 5 5 4 4 3 3 4 5 5 5 5 6 6 5 5 6 6 7 8 10 10 9 8 9 10 10 10 9 8 7 7 8 9 8 6 5 4 3 3 3 3 3 3 3 3 3
21 22 24 23 22 22 21 21 22 21 21 21 20 19 19 19 17 17 16 16 16 15 13 11 11 11 13 12 11 10 9 9 9 8 7 7 7 6 5 5 4 4 3 3 3 4 5 5 5 5 5 5 4 4 5 7 7 9 11 11 9 8 9 10 9 10 8 7 6 6 7 7 7 7 6 5 3 3 3 2 2 1 1 2 2
21 21 22 23 22 22 21 21 21 21 22 22 21 19 20 19 18 17 16 16 16 15 13 12 11 10 12 12 10 9 9 9 8 7 7 6 7 5 4 5 4 3 3 3 4 4 4 4 4 5 4 4 3 4 6 8 8 9 11 11 9 7 9 10 9 9 8 7 7 7 7 7 6 6 5 4 4 3 3 2 1 1 0 1 1
20 20 21 22 23 22 21 21 21 21 21 22 22 20 20 19 19 18 16 16 15 15 14 13 12 11 11 12 11 9 9 9 8 7 7 5 5 5 4 5 3 3 3 3 4 3 3 4 5 4 4 3 4 6 8 9 9 10 11 10 8 7 8 9 9 8 8 8 8 7 7 7 6 5 5 5 4 4 4 3 3 2 2 1 1
20 20 20 21 22 22 21 21 21 22 22 22 22 21 20 20 20 19 17 17 16 15 15 14 13 12 11 11 11 10 9 9 8 7 7 6 5 5 5 5 4 3 3 3 4 4 3 4 5 5 4 3 4 6 8 9 9 9 10 9 7 7 8 9 9 8 6 7 7 7 5 4 4 4 4 4 5 5 4 3 3 3 3 3 2
21 20 20 20 21 21 22 22 22 22 23 22 23 22 22 22 21 21 20 18 17 17 16 15 14 13 12 11 11 10 9 8 8 7 7 7 6 5 5 4 4 3 3 2 3 3 2 3 5 5 5 3 3 4 7 8 7 7 7 7 6 7 8 9 8 7 5 6 6 5 4 3 3 2 2 3 4 4 4 3 3 2 2 2 2
22 21 22 21 21 21 22 23 23 23 24 24 24 24 24 23 23 22 21 20 19 18 17 16 15 14 13 12 11 10 10 9 8 8 7 7 6 5 5 3 3 3 2 2 2 3 2 3 4 4 4 4 3 3 5 7 6 5 6 6 6 7 8 8 6 6 6 6 5 4 4 4 3 3 2 3 3 3 3 2 2 2 1 1 1
24 23 23 23 21 21 21 22 23 23 24 24 24 24 24 23 23 23 21 20 19 19 18 17 16 16 14 13 12 11 11 10 8 8 7 7 6 5 4 3 2 2 2 2 3 3 3 4 5 4 4 4 4 4 6 7 5 5 6 5 5 5 7 6 3 3 5 6 5 4 4 4 4 4 5 5 4 4 4 3 3 3 3 1 1
25 25 24 23 22 21 21 22 23 23 22 22 22 22 22 21 21 20 20 19 20 19 18 17 17 16 16 14 13 12 12 11 9 8 7 7 7 6 5 3 3 3 2 3 4 3 4 5 5 5 4 4 5 5 7 7 5 5 5 4 4 3 4 4 1 0 2 4 5 4 4 3 3 5 6 6 6 6 6 5 4 4 4 4 2
25 25 25 24 24 22 21 22 24 23 21 21 20 19 20 20 20 19 19 19 20 19 19 19 18 18 17 15 14 13 12 11 10 9 8 7 7 7 6 5 4 3 2 3 4 4 4 5 6 5 4 4 5 5 6 6 4 4 3 3 3 2 3 2 2 1 1 3 4 4 5 5 5 6 6 7 7 6 5 5 4 4 4 5 5
25 27 27 27 26 24 22 22 23 23 22 21 19 19 19 20 21 20 20 20 21 21 21 21 21 20 18 16 15 14 12 11 10 9 8 8 8 8 7 6 5 4 4 4 4 5 5 5 5 5 4 4 5 5 5 5 4 3 2 2 2 2 2 1 1 0 1 2 4 4 4 4 4 6 6 6 6 5 4 4 4 4 4 4 5
25 26 27 26 25 24 23 22 22 23 23 21 19 20 21 22 23 24 24 25 25 25 25 24 22 20 19 17 15 14 13 11 10 10 9 9 8 8 8 8 6 4 4 5 4 5 5 5 6 5 4 4 4 5 5 5 5 4 3 2 2 2 2 1 1 1 1 2 3 4 3 4 4 5 5 5 4 3 2 4 4 4 3 4 4
26 24 24 24 23 23 23 23 23 24 23 21 21 21 21 22 24 26 27 27 27 26 26 23 21 19 18 17 16 15 13 12 11 10 10 10 10 9 9 8 7 5 4 4 4 5 5 5 6 6 4 4 4 5 5 5 5 5 4 3 3 3 2 1 1 1 1 2 2 2 2 3 4 4 4 4 4 2 2 3 4 4 3 3 4
25 24 23 23 23 24 23 23 23 24 25 23 23 22 21 22 24 24 25 25 24 22 21 21 19 18 17 17 17 15 14 13 12 11 11 11 11 11 10 9 8 6 4 4 4 4 4 5 6 6 4 4 4 5 6 5 5 5 5 4 4 3 3 2 1 1 0 2 2 2 3 4 4 4 3 2 4 4 4 4 3 2 3 3 3
24 25 25 24 23 23 23 23 23 23 25 25 24 23 22 22 23 23 24 24 22 19 19 20 20 19 19 19 18 16 15 14 13 12 11 11 12 11 11 10 9 7 6 5 4 4 4 5 6 6 5 4 4 4 5 6 5 5 6 6 5 4 3 3 2 1 1 1 3 4 4 4 4 4 3 2 3 4 5 3 1 2 2 3 2
25 26 26 25 23 22 22 23 23 23 25 26 25 24 23 22 22 22 23 22 22 21 21 21 21 20 20 20 19 18 16 15 14 13 12 12 12 12 12 12 10 9 7 6 4 4 5 5 5 6 6 6 4 4 5 5 5 5 5 6 6 5 4 4 4 4 3 2 3 4 4 4 5 5 3 3 4 3 2 1 1 1 0 2 2
25 25 26 26 25 24 23 23 24 24 25 26 26 25 24 24 24 23 22 22 23 23 23 23 22 22 21 21 21 19 17 16 15 14 13 12 13 13 13 13 12 10 8 6 5 4 5 5 5 6 7 7 6 4 4 4 4 4 4 5 5 5 5 5 5 5 5 5 5 5 4 3 4 5 4 4 4 2 1 1 1 2 1 2 2
25 26 27 28 28 27 25 24 24 24 24 26 26 26 25 25 24 23 23 23 23 24 25 24 23 22 21 20 20 19 18 17 16 15 15 13 13 13 13 13 13 11 9 7 6 5 5 5 5 5 7 7 7 6 5 4 3 3 3 3 5 5 5 5 5 5 6 6 6 5 4 3 4 5 6 6 5 3 2 1 1 3 2 1 2
Wind_Direction
143 142 140 139 139 139 140 141 140 137 134 133 132 132 132 130 128 124 122 121 124 122 116 112 110 111 111 111 112 113 115 116 117 119 120 121 122 121 122 120 110 96 84 82 85 88 88 81 76 73 73 81 88 88 90 90 88 90 95 98 98 98 99 101 107 126 141 154 166 171 168 171 175 174 172 171 173 174 173 164 155 155 154 141 121
143 143 142 141 141 140 142 142 139 136 135 135 136 136 135 132 129 126 124 125 127 122 116 115 116 116 115 114 114 116 119 119 119 119 120 121 122 122 122 118 108 98 92 91 91 92 90 83 77 74 75 85 91 89 90 91 89 89 92 94 94 93 94 100 102 107 119 132 146 157 161 161 161 160 157 158 162 164 165 160 157 159 157 150 142
144 144 143 143 141 141 143 141 138 137 137 139 140 140 137 134 131 129 130 132 128 122 120 121 122 121 119 119 119 121 122 120 118 118 118 119 120 119 118 113 106 100 98 95 95 95 91 84 78 74 75 85 91 90 92 92 90 88 88 88 88 88 91 97 99 101 108 114 120 132 149 154 152 150 146 143 144 149 155 156 157 158 154 154 156
146 145 144 142 141 143 143 140 139 139 141 142 143 142 140 137 136 137 137 135 129 124 124 125 124 123 123 124 123 122 119 117 116 116 115 115 116 114 112 109 105 103 101 98 97 95 90 84 79 76 74 83 91 92 94 93 92 90 88 86 86 89 91 90 89 91 95 100 104 113 130 141 147 148 143 139 137 139 148 154 154 154 154 155 156
149 147 144 142 142 143 142 141 141 142 144 145 146 144 143 143 143 144 142 136 130 127 125 125 123 123 126 126 124 119 115 115 115 114 114 113 112 110 109 108 108 106 102 101 99 95 92 88 84 79 75 81 91 93 94 94 93 92 90 88 89 91 89 84 81 82 84 89 94 103 116 127 137 145 144 143 142 139 143 147 146 146 147 144 142
150 148 145 144 144 144 143 143 144 145 147 147 148 147 146 147 148 147 142 136 131 129 126 124 122 123 126 124 120 117 116 117 117 116 113 112 110 109 110 110 110 107 103 102 99 96 93 91 88 82 75 77 87 92 91 94 94 92 91 91 91 91 87 85 82 80 80 82 87 95 106 118 129 139 143 143 142 138 137 137 137 139 139 132 127
151 149 147 146 146 145 145 145 146 148 149 149 149 148 149 148 148 146 140 136 132 130 127 124 123 125 125 122 119 119 120 121 120 118 114 111 110 111 112 112 111 106 102 100 98 96 92 91 88 83 78 75 83 90 92 93 92 91 92 93 93 91 88 87 84 82 82 83 87 92 96 105 119 132 139 138 136 134 134 133 134 138 134 128 124
152 150 149 147 147 146 146 147 149 150 149 150 150 149 150 149 147 144 139 136 135 132 128 126 126 128 127 124 124 123 124 124 121 118 114 112 112 112 112 110 108 103 100 100 99 97 94 93 90 86 81 77 80 88 93 92 89 88 90 94 95 93 90 86 85 83 84 86 89 90 90 93 103 117 129 132 130 131 132 130 134 136 130 128 128
153 152 150 149 148 147 148 148 150 150 150 150 150 150 149 147 144 140 138 137 136 134 131 130 131 131 130 129 128 128 127 124 120 117 115 114 113 112 110 108 106 104 102 103 102 101 99 97 94 90 86 83 83 86 91 93 91 89 89 93 97 98 95 91 89 86 85 87 90 90 90 90 95 103 115 125 128 131 132 131 133 133 130 131 132
154 153 152 150 149 148 149 149 151 150 151 151 148 147 146 144 141 138 138 138 138 136 135 135 136 134 133 131 129 128 125 120 117 115 115 113 112 111 110 109 106 104 103 104 104 103 102 101 99 95 91 89 89 89 90 93 93 90 89 92 95 98 100 97 92 90 88 88 90 91 91 91 92 95 104 116 126 131 133 134 131 129 131 136 140
155 155 154 151 149 149 150 150 151 151 151 148 144 144 143 141 138 138 138 140 140 139 139 140 138 135 133 129 126 122 117 115 114 113 113 112 111 111 110 108 106 104 104 104 104 103 103 103 102 99 94 91 91 92 93 93 92 89 89 91 93 96 98 98 94 92 92 90 90 91 92 92 92 93 97 104 119 129 132 133 131 130 136 146 151
157 156 154 152 150 150 152 152 151 150 148 143 142 143 140 137 137 139 141 143 143 142 143 143 138 133 129 125 120 115 113 112 112 112 111 111 110 110 109 108 107 106 106 106 105 104 104 104 105 103 98 94 92 93 95 94 92 90 90 93 96 97 97 98 98 96 94 92 89 87 90 92 93 93 95 99 108 122 132 139 142 142 146 154 157
158 156 155 153 152 151 152 151 149 147 144 142 141 139 136 135 138 141 144 145 144 144 144 142 138 131 126 121 117 114 114 114 113 112 111 111 110 109 109 108 107 107 106 105 104 103 104 106 108 107 103 98 94 94 95 94 93 91 89 91 93 95 96 98 100 98 96 93 87 82 85 91 94 95 95 97 99 108 126 141 149 149 150 154 155
160 157 156 155 153 152 152 149 147 146 143 141 139 136 134 136 140 141 143 144 143 144 144 141 136 129 124 120 118 117 117 116 114 113 113 112 111 110 108 106 106 105 104 103 102 102 102 103 105 105 102 98 94 93 93 92 94 94 91 91 91 91 94 98 100 100 98 92 85 79 80 88 93 98 100 99 98 100 110 124 138 146 150 150 146
162 159 157 157 155 153 151 148 147 146 143 141 137 135 137 138 139 140 142 142 141 141 141 140 136 129 124 121 120 119 119 116 114 114 114 113 112 110 107 105 104 102 102 102 102 103 103 101 99 98 96 92 92 93 91 91 93 93 92 91 92 91 92 95 96 93 91 89 85 81 81 84 88 97 103 103 101 100 102 107 117 127 136 139 135
163 161 160 158 157 155 150 149 148 146 144 141 138 138 139 140 138 140 141 139 138 138 139 138 135 131 127 124 123 122 120 118 116 116 115 115 113 110 105 102 100 99 98 98 101 104 106 103 99 96 92 88 88 92 94 94 92 91 91 89 89 89 89 89 89 86 84 82 81 80 85 86 87 93 99 99 97 98 102 104 107 110 115 122 126
164 164 162 160 157 156 152 150 150 148 146 142 141 142 141 140 139 140 140 135 133 134 136 135 134 133 130 127 126 125 124 121 119 118 117 116 114 109 103 99 96 96 95 96 98 102 106 104 100 97 94 89 88 89 93 96 93 91 92 89 88 88 89 89 87 84 81 79 76 74 80 86 91 93 94 94 92 95 105 109 107 103 107 116 125
165 166 164 161 158 156 154 153 152 150 148 145 145 144 143 141 141 141 138 133 131 132 133 133 134 133 131 130 128 127 126 124 122 121 120 118 115 110 102 98 95 95 95 94 94 96 100 101 100 99 96 91 86 83 84 90 91 91 92 90 89 88 87 88 88 86 81 78 75 72 73 81 91 97 94 92 92 91 100 113 122 120 119 125 130
167 168 166 163 159 156 156 155 154 152 149 148 149 146 144 142 142 141 137 133 131 131 132 133 135 134 132 130 130 130 128 126 124 123 122 119 115 109 103 98 96 95 94 93 93 93 94 96 97 97 95 91 84 80 77 78 82 86 91 90 87 86 82 80 83 85 82 78 75 72 70 73 83 94 98 96 94 91 93 103 121 140 143 140 141
169 169 168 165 159 158 159 158 155 153 151 151 151 148 145 143 142 139 135 133 131 130 131 134 135 135 134 133 133 132 130 127 126 125 122 119 114 109 104 100 95 93 93 94 96 97 96 97 97 96 93 90 87 83 77 74 78 82 86 88 86 84 81 76 76 77 77 75 74 74 73 72 76 85 94 96 94 94 93 94 103 123 145 153 158
172 171 170 167 160 160 162 160 158 155 153 153 153 150 146 143 141 138 134 131 130 130 131 134 136 137 137 137 137 135 133 130 126 125 122 120 115 110 107 101 96 93 93 96 98 98 97 97 96 94 90 87 88 87 81 76 78 82 83 84 86 85 83 80 76 74 73 72 73 76 77 74 74 77 81 86 87 93 96 96 99 108 129 147 162
174 173 171 170 162 162 165 163 161 158 155 155 155 151 147 143 141 137 133 130 127 128 129 131 135 138 139 139 139 137 134 130 127 127 125 122 117 113 109 102 98 96 94 93 94 95 94 93 91 89 88 85 84 84 82 78 77 79 82 86 87 86 87 87 83 79 75 73 74 76 78 76 75 73 72 76 81 88 95 98 100 103 113 125 136
176 174 172 172 166 165 167 166 164 160 157 157 156 153 149 145 142 139 134 131 128 127 126 128 133 135 136 137 136 134 132 130 130 130 127 124 120 116 110 104 98 94 93 91 91 93 89 86 84 82 83 85 83 82 79 77 74 72 77 80 78 79 85 89 88 83 76 75 77 75 77 77 75 74 72 73 77 80 85 88 92 95 97 103 109
177 175 174 174 171 167 167 167 166 163 160 159 158 156 153 148 144 142 137 133 131 129 128 130 133 133 134 134 133 133 133 133 134 133 131 128 124 119 114 107 98 93 93 92 91 90 87 82 80 78 76 80 84 84 81 73 65 63 68 71 75 79 81 90 92 85 79 78 82 80 79 78 77 78 77 75 75 74 76 77 81 87 90 89 90
179 178 178 177 174 170 169 169 167 165 163 162 161 158 156 152 148 146 142 138 137 135 134 135 136 137 136 135 136 137 138 138 137 137 134 132 130 126 121 112 99 94 93 94 94 91 88 81 77 76 73 74 77 78 77 72 61 58 63 68 79 81 78 95 100 87 78 76 85 93 88 84 83 87 88 84 78 74 73 73 74 79 84 84 80
181 181 180 180 177 173 171 169 168 167 165 164 163 162 159 155 152 151 148 146 145 143 140 140 141 141 140 139 141 143 142 141 140 139 138 137 137 134 130 122 107 96 93 97 97 95 91 88 87 80 72 67 66 61 59 67 66 61 64 66 70 69 79 105 105 88 77 69 77 100 104 96 93 96 97 95 90 83 78 75 75 74 77 80 80
182 183 182 182 180 176 173 171 170 168 166 166 166 164 163 159 157 157 157 155 152 149 147 147 148 146 144 142 144 148 146 144 144 142 140 140 140 138 133 125 117 110 103 97 94 94 91 94 94 85 77 68 61 49 39 54 63 60 65 65 59 51 77 111 107 92 83 71 70 91 116 115 108 105 99 96 97 91 86 81 79 76 74 76 80
184 183 184 184 183 179 175 173 172 171 170 168 167 168 167 164 162 162 162 161 157 154 153 155 155 151 146 143 144 150 150 148 147 141 138 140 142 140 132 120 120 122 109 100 104 103 89 86 80 75 75 70 68 56 35 36 49 54 62 59 57 52 68 114 110 99 95 80 71 78 112 131 123 115 106 99 98 94 92 88 85 81 75 76 79
187 185 186 185 185 182 177 176 174 173 173 170 170 171 171 168 167 167 166 165 164 162 161 161 162 155 146 141 141 145 147 147 144 138 138 142 144 138 129 124 127 128 112 106 113 106 87 78 72 72 70 68 75 64 36 23 27 39 54 54 57 64 78 115 110 101 101 89 77 76 95 135 134 122 115 108 104 98 95 92 88 84 76 75 80
190 188 189 187 187 185 179 179 177 175 175 173 173 173 173 172 170 170 171 171 172 176 171 167 168 160 148 143 143 141 141 145 142 138 137 139 143 138 128 129 129 124 110 98 96 88 82 79 77 79 72 70 77 62 35 21 13 12 31 48 60 71 85 114 110 100 100 92 81 75 85 127 136 129 123 116 110 104 97 94 90 85 78 74 77
192 191 192 189 189 186 181 182 180 179 178 174 175 176 175 175 174 175 176 176 178 185 181 174 172 161 152 150 149 147 144 149 146 137 135 135 142 140 125 124 124 115 103 85 74 67 70 71 67 71 67 64 66 51 30 23 10 357 14 38 54 69 83 110 113 103 99 93 87 80 84 114 131 132 131 126 119 114 106 100 96 91 87 83 81
192 192 194 192 192 189 184 185 184 182 181 178 177 178 178 179 179 178 180 179 182 192 187 180 175 162 156 157 155 151 150 150 144 139 138 135 136 129 116 116 117 107 93 78 64 57 61 63 55 56 58 54 50 38 23 20 6 353 10 31 47 67 87 108 116 110 101 96 95 91 89 101 119 127 130 133 129 125 119 112 107 101 98 99 96
189 190 195 195 194 194 188 187 189 187 183 182 180 180 181 183 184 182 183 182 186 196 193 183 177 165 160 162 160 152 150 149 144 145 141 132 128 119 115 117 110 101 88 72 62 57 62 67 59 50 49 49 42 27 19 16 4 360 17 35 44 63 95 113 116 114 108 102 99 99 100 100 105 116 125 136 138 137 134 130 125 117 110 112 111
189 188 193 195 195 196 193 191 192 190 186 187 185 183 184 187 188 187 187 186 188 197 195 188 182 170 164 166 164 156 154 154 152 149 140 132 129 121 118 115 103 97 84 73 64 67 71 67 69 60 46 46 41 23 19 21 14 10 22 35 44 67 107 121 119 117 112 105 97 99 108 108 106 109 118 128 142 156 159 157 150 139 125 119 118
191 190 191 194 195 196 197 195 194 193 189 190 190 187 187 190 193 193 192 190 190 195 194 191 192 177 167 171 170 164 159 160 159 150 143 138 128 123 123 116 104 94 78 76 69 66 71 64 73 77 58 51 43 27 28 27 20 15 20 32 44 76 116 126 122 117 111 105 99 97 105 110 110 111 113 112 122 144 150 164 175 176 142 112 111
191 191 191 193 195 196 199 199 198 196 191 192 194 193 191 193 197 198 196 194 193 196 194 191 199 190 173 174 177 173 165 166 168 152 149 140 124 129 134 124 122 113 89 89 83 70 77 76 77 82 72 61 49 36 34 28 20 14 17 28 44 80 122 130 124 117 112 108 104 101 100 102 108 114 120 119 119 123 117 124 141 155 135 92 84
193 192 191 193 195 195 199 201 200 199 195 193 196 197 195 196 199 201 200 198 197 198 197 192 198 200 186 178 180 182 172 172 176 159 155 148 136 145 140 133 142 134 118 111 103 95 104 106 96 90 79 58 41 33 29 25 16 10 15 27 50 89 119 127 127 120 112 110 106 99 96 101 109 118 126 132 130 122 112 112 109 92 85 83 85
199 195 193 194 196 195 196 201 202 201 199 196 198 200 198 197 199 202 203 201 200 201 198 194 196 200 196 186 181 185 181 177 179 170 166 164 158 156 144 145 158 151 140 132 113 103 108 111 105 96 84 56 34 29 24 22 10 3 13 29 61 99 119 124 126 123 112 104 97 88 84 91 101 114 131 141 140 125 110 108 112 104 93 85 85
202 198 197 196 199 197 195 200 202 202 201 198 199 202 201 200 200 203 204 202 203 204 199 195 196 198 200 195 187 187 188 185 182 178 174 173 168 158 155 161 163 158 146 138 109 95 105 113 112 102 90 70 40 29 20 13 2 1 16 28 58 98 123 127 125 125 111 88 79 71 58 50 53 74 122 145 150 137 115 101 93 94 95 93 86
205 201 201 200 201 199 196 199 203 203 202 200 200 203 203 202 202 204 204 202 203 205 201 196 195 198 201 199 194 192 192 194 190 184 180 180 177 164 166 171 163 155 133 129 111 101 122 128 120 108 93 74 53 36 17 8 2 21 32 29 47 81 106 117 122 119 107 89 75 58 40 29 35 58 85 103 126 135 126 101 67 55 71 184 210
206 204 204 204 203 202 199 200 204 206 203 200 201 204 205 203 203 203 202 201 203 205 202 197 195 197 201 200 197 195 194 197 197 191 188 187 185 177 176 176 168 167 138 128 125 121 134 137 127 111 87 64 48 28 19 17 19 39 40 34 44 68 90 103 115 100 102 102 90 74 59 40 37 56 70 74 79 92 97 86 67 58 58 56 243
206 205 206 207 206 205 202 201 206 210 207 203 204 206 207 206 205 203 201 202 204 204 202 199 196 196 200 200 198 196 195 197 199 197 198 197 191 188 190 188 176 173 148 118 119 128 138 137 128 111 82 57 41 20 17 23 33 42 36 36 50 66 88 105 147 37 92 105 103 105 112 107 84 74 74 73 72 79 88 86 78 68 60 54 36
206 204 205 208 209 207 204 203 206 211 211 206 206 207 207 207 206 203 202 204 205 204 204 202 197 195 198 201 200 198 196 197 200 200 202 205 200 197 199 195 178 166 142 110 109 121 134 131 120 106 84 60 45 26 17 22 40 46 28 29 56 76 96 132 191 208 111 105 118 127 126 127 114 93 79 72 67 66 77 78 72 69 59 54 46
208 202 203 206 208 207 205 205 207 210 212 208 207 207 206 206 205 202 201 205 207 206 207 205 198 194 196 199 200 199 198 199 201 202 204 209 209 205 204 201 189 169 140 118 112 119 127 125 111 101 85 65 50 39 24 23 43 54 38 33 60 76 101 174 218 95 60 95 117 121 116 111 94 81 68 60 54 45 55 56 42 46 47 44 42
210 205 203 205 207 206 204 205 206 209 211 207 204 205 206 206 204 202 200 202 205 205 204 204 198 193 195 199 200 200 202 203 204 204 206 211 214 212 210 210 202 183 150 131 126 124 124 124 114 102 84 68 51 45 40 31 41 58 65 65 67 60 87 173 259 358 358 30 77 80 90 97 78 65 52 39 37 24 46 51 24 22 31 31 34
212 208 205 206 209 208 204 203 204 207 210 207 204 205 207 207 205 203 201 202 204 203 201 200 198 194 195 201 204 204 205 207 209 210 211 213 215 216 216 218 212 197 170 140 132 127 126 127 121 111 93 75 58 51 54 47 43 56 70 77 82 71 83 149 237 295 328 341 46 55 58 80 71 62 50 31 41 48 64 51 20 5 6 20 29
212 208 205 206 209 209 207 204 202 203 208 209 205 204 207 208 208 206 204 205 206 204 200 200 200 198 196 202 207 208 208 210 214 216 218 219 216 216 218 221 221 209 190 163 146 137 134 133 130 125 113 88 67 58 61 60 52 57 68 79 89 95 102 121 190 206 253 318 27 36 11 27 42 58 67 56 63 72 63 44 28 15 355 3 27
211 206 203 204 207 209 208 207 204 201 204 209 208 205 207 208 208 207 205 206 207 205 203 202 203 201 198 201 208 211 211 212 217 219 222 223 219 216 216 219 222 215 204 188 167 151 142 140 140 139 133 116 92 77 76 72 62 63 70 77 86 95 98 98 105 106 117 330 20 30 8 9 37 66 84 78 66 65 57 35 29 65 356 328 355
212 207 203 201 204 208 210 209 206 202 202 207 209 207 206 208 209 208 205 204 204 204 204 205 206 204 200 202 208 213 215 215 219 222 223 224 222 216 214 217 219 218 211 200 184 166 154 148 148 153 150 138 126 114 105 94 78 72 73 76 81 83 78 79 82 78 80 64 36 39 30 17 44 74 90 80 66 59 57 358 273 102 348 298 330
211 208 204 203 203 206 210 210 207 204 202 205 210 210 207 208 209 208 206 203 202 203 204 206 207 208 204 204 208 213 218 219 220 224 224 224 222 217 215 216 218 219 215 207 200 185 172 162 151 157 161 150 143 144 133 121 105 89 78 75 80 77 67 65 69 72 74 74 59 54 55 26 39 75 99 98 89 91 130 223 240 108 132 290 339
208 205 203 203 203 205 208 210 208 206 204 204 208 211 210 210 210 209 208 205 204 205 207 208 208 210 208 205 208 212 219 223 221 223 225 225 223 218 214 216 219 219 217 214 212 205 192 177 161 162 172 165 157 157 155 150 137 115 89 73 78 79 74 66 63 64 66 72 73 70 76 65 51 75 102 109 105 106 113 105 70 82 91 7 11
Height
3184 3186 3186 3188 3189 3190 3192 3193 3194 3194 3195 3195 3196 3197 3198 3198 3199 3200 3201 3202 3202 3202 3202 3202 3202 3203 3204 3204 3205 3205 3206 3207 3207 3208 3209 3209 3210 3210 3210 3210 3211 3211 3210 3210 3210 3210 3209 3209 3208 3208 3208 3207 3207 3207 3207 3207 3207 3206 3206 3205 3205 3205 3206 3206 3206 3206 3207 3207 3208 3208 3209 3209 3210 3210 3211 3212 3212 3213 3214 3214 3215 3215 3215 3216 3216
3185 3186 3187 3189 3190 3191 3193 3194 3195 3195 3196 3197 3197 3198 3199 3199 3200 3201 3202 3203 3203 3203 3203 3204 3204 3205 3205 3205 3206 3206 3207 3207 3208 3209 3209 3210 3210 3211 3211 3211 3211 3211 3211 3211 3210 3210 3210 3209 3209 3209 3208 3208 3208 3208 3208 3207 3207 3207 3207 3207 3206 3206 3206 3206 3207 3207 3207 3207 3208 3208 3209 3209 3210 3210 3211 3212 3212 3213 3213 3214 3214 3215 3215 3215 3216
3186 3187 3189 3190 3191 3193 3194 3195 3196 3196 3197 3198 3199 3199 3200 3200 3201 3202 3203 3204 3204 3204 3205 3205 3206 3206 3206 3207 3207 3208 3208 3208 3209 3210 3210 3211 3211 3211 3211 3211 3211 3211 3211 3211 3211 3210 3210 3210 3210 3209 3209 3208 3208 3208 3208 3208 3208 3208 3208 3208 3207 3207 3207 3207 3207 3207 3208 3208 3208 3208 3209 3209 3210 3210 3211 3211 3212 3213 3213 3214 3214 3214 3215 3215 3216
3187 3188 3189 3191 3192 3194 3195 3196 3197 3198 3199 3199 3200 3200 3201 3202 3203 3203 3204 3205 3205 3206 3206 3207 3207 3207 3208 3208 3209 3209 3209 3209 3210 3210 3211 3211 3211 3211 3211 3211 3211 3211 3211 3211 3211 3211 3211 3211 3210 3210 3209 3209 3209 3209 3209 3209 3209 3209 3209 3208 3208 3208 3208 3208 3208 3208 3208 3208 3208 3208 3209 3210 3210 3211 3211 3211 3212 3213 3213 3214 3214 3214 3215 3215 3216
3188 3190 3191 3192 3193 3195 3196 3197 3198 3199 3200 3200 3201 3201 3202 3203 3204 3204 3205 3206 3206 3206 3207 3208 3208 3208 3209 3209 3210 3210 3210 3210 3211 3211 3211 3211 3211 3212 3212 3212 3212 3212 3212 3212 3212 3212 3212 3212 3211 3211 3210 3210 3210 3210 3210 3209 3209 3209 3209 3209 3209 3209 3209 3209 3209 3209 3209 3209 3209 3209 3209 3210 3210 3211 3211 3212 3212 3213 3213 3214 3214 3214 3215 3215 3216
3189 3191 3192 3193 3194 3196 3197 3198 3199 3200 3201 3201 3202 3202 3203 3204 3205 3205 3206 3206 3207 3207 3208 3208 3209 3209 3210 3210 3210 3210 3211 3211 3211 3211 3211 3212 3212 3212 3212 3212 3212 3212 3213 3213 3212 3212 3213 3213 3212 3212 3211 3211 3211 3211 3210 3210 3210 3210 3210 3210 3210 3210 3210 3210 3210 3209 3209 3209 3209 3209 3210 3210 3210 3211 3211 3212 3212 3213 3214 3214 3215 3215 3215 3215 3216
3190 3192 3192 3193 3195 3196 3198 3199 3200 3201 3201 3202 3203 3203 3204 3205 3205 3206 3206 3207 3207 3208 3209 3209 3210 3210 3211 3211 3211 3211 3211 3211 3212 3212 3212 3212 3212 3213 3213 3213 3213 3214 3214 3213 3213 3213 3214 3213 3213 3213 3212 3212 3212 3211 3211 3211 3211 3211 3211 3211 3211 3211 3211 3211 3211 3211 3210 3210 3210 3210 3211 3211 3211 3211 3212 3212 3213 3213 3214 3214 3215 3215 3215 3216 3216
3191 3192 3193 3195 3196 3198 3199 3200 3201 3201 3202 3203 3203 3204 3205 3205 3206 3206 3207 3207 3208 3209 3210 3210 3211 3211 3211 3211 3212 3212 3212 3212 3213 3213 3213 3213 3213 3214 3214 3214 3214 3215 3215 3215 3214 3215 3215 3214 3214 3213 3213 3213 3213 3212 3212 3212 3212 3212 3212 3212 3212 3212 3212 3212 3212 3212 3211 3211 3211 3211 3211 3211 3212 3212 3212 3213 3213 3214 3214 3214 3215 3216 3216 3216 3217
3191 3193 3195 3196 3197 3199 3200 3200 3201 3202 3203 3203 3204 3205 3205 3206 3206 3207 3207 3208 3209 3210 3210 3211 3212 3212 3212 3212 3212 3213 3213 3213 3214 3214 3214 3214 3214 3215 3215 3215 3215 3215 3215 3215 3215 3215 3215 3215 3214 3214 3214 3214 3214 3213 3213 3213 3213 3213 3213 3213 3213 3213 3213 3213 3213 3213 3213 3213 3213 3213 3212 3212 3213 3213 3213 3213 3214 3214 3214 3215 3216 3217 3216 3217 3217
3192 3194 3196 3197 3198 3199 3200 3201 3202 3203 3203 3204 3205 3205 3206 3207 3207 3208 3208 3209 3210 3211 3211 3212 3212 3213 3213 3213 3213 3213 3214 3214 3214 3215 3215 3215 3215 3216 3216 3216 3216 3216 3216 3216 3216 3216 3216 3215 3215 3215 3214 3214 3214 3214 3214 3214 3214 3214 3214 3214 3214 3214 3214 3214 3214 3214 3214 3214 3214 3214 3214 3214 3214 3214 3214 3214 3214 3215 3216 3216 3217 3217 3217 3218 3218
3193 3195 3197 3198 3199 3200 3201 3202 3203 3203 3204 3204 3205 3206 3207 3207 3208 3209 3210 3210 3211 3212 3212 3213 3213 3214 3214 3214 3214 3214 3214 3215 3215 3216 3216 3216 3216 3216 3217 3217 3217 3217 3216 3216 3216 3216 3216 3216 3216 3216 3215 3215 3215 3215 3215 3215 3215 3215 3215 3215 3215 3215 3215 3215 3215 3215 3215 3215 3215 3215 3215 3215 3215 3215 3215 3215 3215 3216 3217 3217 3218 3218 3218 3219 3219
3194 3196 3197 3199 3200 3201 3202 3202 3203 3204 3204 3205 3206 3207 3207 3208 3209 3210 3211 3211 3212 3212 3213 3214 3214 3214 3215 3215 3215 3215 3215 3216 3216 3217 3217 3217 3217 3217 3217 3217 3217 3217 3217 3217 3217 3217 3217 3217 3216 3216 3216 3216 3216 3216 3216 3216 3216 3216 3216 3216 3216 3216 3216 3216 3216 3216 3216 3216 3216 3216 3216 3216 3216 3215 3216 3216 3216 3217 3217 3218 3219 3219 3219 3219 3219
3195 3196 3198 3199 3200 3201 3202 3203 3204 3204 3205 3206 3207 3207 3208 3209 3210 3211 3211 3212 3212 3213 3214 3214 3215 3215 3215 3216 3216 3216 3217 3217 3217 3217 3217 3218 3218 3218 3218 3218 3218 3218 3218 3218 3218 3218 3217 3217 3217 3217 3217 3217 3217 3217 3216 3217 3217 3217 3217 3216 3216 3217 3217 3217 3217 3217 3217 3217 3217 3217 3217 3217 3217 3216 3216 3217 3217 3218 3218 3219 3219 3219 3219 3220 3220
3195 3197 3199 3200 3201 3202 3203 3204 3204 3205 3206 3207 3208 3208 3209 3210 3211 3212 3212 3213 3213 3214 3214 3215 3215 3216 3216 3216 3217 3217 3217 3218 3218 3218 3218 3219 3219 3219 3219 3219 3219 3219 3219 3218 3218 3218 3218 3218 3218 3218 3218 3218 3218 3217 3217 3217 3218 3217 3217 3217 3217 3217 3217 3218 3218 3218 3218 3218 3218 3218 3218 3218 3218 3218 3218 3218 3218 3219 3219 3219 3219 3219 3219 3220 3220
3197 3198 3199 3201 3202 3202 3203 3204 3205 3206 3207 3208 3208 3209 3210 3211 3212 3212 3213 3213 3214 3214 3215 3215 3216 3216 3217 3217 3217 3218 3218 3218 3219 3219 3219 3219 3220 3220 3220 3220 3220 3220 3219 3219 3219 3219 3219 3219 3219 3219 3219 3219 3218 3218 3218 3218 3218 3218 3218 3218 3218 3218 3218 3218 3218 3218 3218 3218 3218 3218 3218 3218 3218 3219 3219 3219 3219 3219 3220 3220 3220 3220 3220 3221 3221
3199 3200 3200 3201 3202 3203 3204 3205 3206 3207 3208 3209 3209 3210 3211 3212 3213 3213 3214 3214 3214 3215 3216 3216 3216 3217 3217 3218 3218 3218 3219 3219 3220 3220 3220 3220 3220 3221 3221 3221 3221 3220 3220 3220 3220 3219 3219 3219 3220 3220 3220 3219 3219 3219 3219 3219 3219 3219 3219 3219 3219 3219 3219 3219 3218 3218 3218 3218 3218 3218 3218 3218 3219 3219 3220 3220 3220 3221 3221 3221 3221 3221 3221 3222 3222
3199 3200 3201 3202 3203 3204 3204 3205 3206 3207 3208 3209 3210 3211 3212 3213 3213 3214 3215 3215 3215 3216 3216 3217 3217 3217 3218 3218 3219 3219 3220 3220 3220 3221 3221 3221 3221 3221 3222 3222 3222 3221 3221 3221 3221 3220 3220 3220 3220 3220 3220 3220 3220 3220 3220 3219 3220 3220 3220 3220 3220 3220 3220 3220 3219 3219 3219 3219 3219 3219 3219 3219 3219 3220 3220 3221 3221 3221 3221 3222 3222 3222 3222 3223 3223
3199 3201 3202 3203 3204 3204 3205 3206 3207 3208 3209 3210 3211 3212 3213 3213 3214 3215 3215 3215 3216 3216 3217 3217 3217 3218 3218 3219 3220 3220 3220 3221 3221 3222 3222 3222 3222 3222 3223 3223 3223 3222 3222 3222 3221 3221 3221 3221 3221 3221 3221 3221 3221 3221 3221 3220 3220 3220 3220 3221 3221 3221 3221 3221 3220 3220 3220 3220 3220 3219 3219 3219 3220 3220 3221 3221 3221 3222 3222 3222 3222 3222 3223 3223 3224
3200 3201 3202 3203 3204 3205 3206 3207 3208 3209 3210 3211 3212 3212 3213 3214 3215 3216 3216 3216 3217 3217 3217 3218 3218 3219 3219 3220 3220 3221 3221 3222 3222 3222 3223 3223 3223 3224 3224 3224 3224 3223 3223 3223 3223 3222 3222 3222 3222 3222 3222 3222 3222 3222 3221 3221 3221 3221 3222 3222 3222 3221 3221 3222 3222 3221 3221 3221 3220 3220 3220 3220 3221 3221 3221 3221 3222 3222 3223 3223 3223 3223 3223 3224 3224
3200 3201 3202 3204 3205 3206 3207 3208 3209 3210 3211 3212 3213 3213 3214 3215 3216 3216 3217 3217 3217 3218 3218 3218 3219 3220 3220 3221 3221 3222 3222 3223 3223 3224 3224 3224 3224 3225 3225 3225 3224 3224 3224 3224 3224 3224 3223 3223 3223 3223 3223 3223 3223 3223 3222 3222 3222 3222 3222 3222 3222 3222 3222 3222 3222 3222 3222 3222 3221 3221 3221 3221 3222 3222 3222 3222 3222 3223 3223 3223 3224 3224 3224 3224 3225
3199 3201 3202 3204 3205 3206 3208 3209 3210 3211 3211 3213 3214 3214 3215 3216 3217 3217 3217 3218 3218 3219 3219 3219 3220 3220 3221 3221 3222 3222 3223 3224 3224 3225 3225 3225 3225 3225 3226 3225 3225 3225 3225 3225 3225 3225 3224 3224 3224 3224 3224 3224 3224 3224 3223 3223 3223 3223 3223 3223 3223 3222 3222 3222 3223 3223 3223 3223 3223 3223 3223 3223 3222 3223 3223 3223 3223 3223 3223 3224 3224 3224 3224 3224 3225
3198 3200 3202 3204 3205 3207 3208 3209 3210 3211 3212 3213 3214 3215 3216 3216 3217 3218 3218 3219 3219 3219 3220 3220 3220 3221 3221 3222 3223 3223 3224 3224 3225 3225 3226 3226 3226 3226 3226 3226 3226 3226 3226 3226 3226 3226 3226 3225 3225 3225 3225 3225 3225 3225 3224 3224 3224 3224 3224 3224 3223 3223 3223 3223 3223 3223 3223 3223 3224 3224 3224 3223 3223 3223 3224 3224 3224 3224 3224 3224 3224 3224 3224 3225 3225
3198 3199 3201 3203 3205 3207 3209 3210 3211 3212 3213 3214 3215 3216 3216 3217 3218 3219 3219 3220 3220 3220 3221 3221 3221 3222 3222 3223 3223 3224 3224 3225 3225 3226 3226 3227 3227 3227 3227 3227 3227 3227 3227 3227 3227 3227 3226 3226 3226 3226 3226 3225 3225 3225 3225 3225 3225 3225 3225 3224 3224 3224 3223 3223 3224 3224 3224 3224 3224 3224 3224 3224 3224 3225 3225 3225 3225 3224 3224 3224 3224 3224 3225 3225 3225
3198 3200 3202 3203 3205 3207 3209 3210 3212 3212 3213 3214 3215 3216 3217 3218 3219 3219 3220 3221 3221 3221 3222 3222 3222 3223 3223 3224 3224 3225 3225 3226 3226 3226 3227 3227 3228 3228 3228 3227 3227 3228 3228 3228 3228 3228 3227 3227 3227 3227 3227 3226 3226 3226 3225 3225 3225 3225 3225 3225 3224 3224 3224 3224 3224 3224 3224 3224 3225 3225 3225 3225 3226 3226 3226 3226 3226 3226 3226 3225 3225 3225 3225 3225 3226
3199 3200 3202 3203 3205 3207 3209 3210 3212 3213 3214 3215 3216 3217 3218 3218 3219 3220 3221 3221 3222 3222 3223 3223 3223 3224 3224 3224 3225 3226 3226 3226 3226 3227 3227 3228 3228 3228 3228 3228 3228 3228 3228 3229 3228 3228 3228 3227 3227 3227 3227 3227 3227 3227 3226 3226 3226 3225 3225 3225 3224 3224 3225 3225 3225 3225 3225 3225 3225 3225 3226 3226 3227 3227 3227 3227 3227 3227 3227 3226 3226 3226 3226 3226 3226
3199 3200 3202 3204 3205 3207 3209 3210 3212 3213 3214 3215 3216 3217 3218 3219 3220 3221 3221 3222 3223 3223 3223 3224 3224 3224 3225 3225 3226 3226 3226 3227 3227 3228 3228 3228 3228 3229 3229 3229 3229 3229 3229 3229 3229 3229 3228 3228 3228 3228 3228 3227 3227 3227 3227 3227 3226 3226 3226 3226 3225 3225 3225 3225 3225 3226 3226 3226 3226 3226 3226 3227 3227 3228 3228 3228 3228 3227 3227 3227 3227 3227 3227 3227 3227
3198 3200 3202 3204 3205 3207 3208 3210 3212 3213 3214 3215 3217 3218 3219 3219 3220 3221 3222 3223 3224 3224 3224 3225 3225 3225 3225 3226 3226 3227 3227 3227 3227 3228 3228 3229 3229 3229 3229 3229 3229 3229 3229 3229 3229 3229 3228 3228 3228 3228 3228 3228 3228 3227 3228 3227 3227 3227 3227 3226 3226 3225 3225 3225 3225 3226 3226 3226 3226 3227 3227 3227 3228 3228 3229 3229 3228 3228 3228 3228 3228 3228 3228 3228 3227
3198 3200 3202 3203 3205 3207 3208 3210 3212 3213 3214 3215 3217 3218 3219 3219 3220 3221 3222 3223 3224 3225 3225 3226 3226 3226 3226 3226 3227 3228 3228 3228 3228 3228 3229 3229 3229 3229 3229 3229 3229 3229 3229 3229 3229 3229 3228 3228 3228 3228 3228 3228 3228 3227 3227 3228 3228 3228 3228 3227 3226 3225 3225 3225 3225 3226 3227 3227 3227 3227 3227 3228 3228 3229 3229 3229 3229 3229 3229 3229 3228 3228 3228 3228 3228
3198 3200 3201 3203 3205 3206 3208 3210 3211 3213 3214 3215 3217 3218 3219 3220 3220 3222 3223 3224 3225 3225 3226 3226 3227 3227 3227 3227 3227 3228 3228 3228 3228 3229 3229 3230 3230 3230 3230 3230 3229 3229 3229 3229 3229 3229 3228 3228 3229 3229 3228 3228 3228 3228 3228 3228 3227 3228 3228 3227 3226 3225 3225 3225 3225 3226 3227 3227 3227 3227 3228 3228 3228 3229 3229 3230 3230 3230 3230 3229 3229 3229 3229 3229 3229
3198 3200 3201 3203 3205 3206 3208 3209 3211 3212 3214 3215 3216 3218 3219 3220 3221 3222 3223 3224 3225 3226 3227 3227 3227 3227 3228 3228 3228 3228 3228 3229 3229 3229 3230 3230 3230 3230 3230 3230 3230 3229 3229 3229 3229 3229 3228 3228 3229 3229 3228 3228 3228 3228 3228 3227 3226 3226 3226 3226 3226 3225 3225 3225 3226 3226 3227 3227 3227 3227 3228 3228 3229 3229 3230 3230 3230 3230 3230 3230 3230 3230 3229 3229 3229
3197 3199 3200 3203 3204 3206 3208 3209 3211 3212 3213 3215 3216 3218 3219 3220 3221 3222 3223 3224 3225 3226 3227 3227 3228 3228 3228 3228 3228 3229 3229 3229 3230 3230 3230 3231 3231 3231 3231 3230 3230 3230 3229 3229 3229 3229 3228 3228 3228 3228 3228 3228 3228 3228 3228 3227 3226 3226 3225 3226 3226 3226 3225 3226 3226 3226 3227 3228 3228 3228 3228 3229 3229 3230 3230 3231 3231 3231 3231 3231 3231 3230 3230 3230 3230
3196 3198 3200 3202 3204 3206 3207 3209 3210 3211 3213 3214 3216 3217 3219 3220 3221 3222 3223 3224 3225 3226 3227 3228 3228 3228 3228 3229 3229 3229 3229 3230 3230 3230 3231 3231 3231 3231 3231 3231 3230 3230 3230 3230 3229 3229 3229 3228 3228 3228 3228 3228 3228 3228 3228 3228 3227 3226 3226 3226 3226 3226 3226 3226 3226 3226 3227 3228 3228 3229 3229 3229 3230 3230 3231 3231 3231 3231 3231 3231 3231 3231 3231 3231 3231
3195 3197 3199 3201 3203 3205 3207 3208 3209 3211 3212 3214 3215 3217 3218 3219 3220 3222 3223 3224 3225 3226 3227 3227 3228 3228 3229 3229 3229 3229 3230 3230 3230 3231 3231 3231 3231 3231 3231 3231 3231 3231 3230 3230 3230 3230 3229 3229 3229 3228 3228 3229 3229 3229 3228 3228 3228 3227 3226 3226 3226 3226 3226 3226 3226 3227 3228 3228 3229 3229 3230 3230 3230 3231 3231 3231 3232 3232 3232 3231 3231 3231 3231 3231 3231
3195 3196 3197 3199 3202 3204 3206 3207 3209 3210 3212 3213 3214 3216 3217 3219 3220 3221 3222 3223 3225 3226 3226 3227 3228 3228 3229 3229 3229 3230 3230 3230 3230 3231 3231 3231 3231 3232 3232 3232 3231 3231 3231 3231 3231 3231 3230 3230 3229 3229 3229 3229 3229 3229 3229 3228 3228 3226 3226 3226 3226 3226 3226 3227 3227 3227 3228 3228 3229 3230 3230 3230 3230 3231 3231 3232 3232 3232 3232 3232 3232 3232 3232 3232 3232
3193 3195 3196 3198 3200 3203 3205 3206 3208 3209 3211 3212 3213 3215 3217 3218 3220 3221 3222 3223 3224 3225 3226 3227 3227 3228 3229 3229 3229 3230 3230 3230 3230 3231 3231 3232 3232 3232 3232 3232 3232 3232 3232 3232 3231 3231 3231 3230 3230 3230 3230 3230 3230 3230 3230 3229 3227 3226 3226 3226 3227 3226 3227 3227 3227 3228 3228 3229 3230 3230 3230 3231 3231 3231 3231 3232 3232 3232 3232 3232 3232 3232 3232 3232 3232
3192 3194 3196 3197 3199 3201 3203 3205 3207 3208 3210 3211 3213 3214 3216 3218 3219 3220 3222 3223 3224 3225 3226 3227 3227 3227 3228 3229 3229 3229 3230 3230 3230 3231 3231 3232 3232 3232 3232 3232 3232 3232 3232 3232 3232 3231 3231 3231 3231 3231 3230 3230 3231 3230 3230 3228 3227 3226 3226 3226 3227 3227 3227 3227 3228 3228 3229 3229 3230 3230 3231 3231 3231 3231 3231 3232 3232 3232 3232 3232 3232 3232 3232 3232 3232
3191 3193 3195 3196 3197 3200 3202 3204 3206 3207 3209 3210 3212 3213 3215 3217 3218 3219 3221 3222 3223 3224 3225 3226 3227 3227 3228 3229 3229 3229 3229 3230 3230 3231 3231 3232 3232 3233 3233 3233 3233 3233 3233 3233 3232 3232 3232 3232 3231 3231 3231 3231 3231 3230 3229 3228 3227 3226 3227 3227 3227 3227 3227 3228 3229 3229 3229 3230 3230 3231 3231 3231 3231 3231 3231 3232 3232 3232 3232 3232 3232 3232 3232 3232 3232
3189 3191 3193 3195 3197 3198 3200 3202 3204 3206 3208 3209 3211 3212 3214 3215 3217 3218 3220 3221 3222 3223 3224 3225 3226 3227 3227 3228 3228 3229 3229 3230 3230 3231 3232 3232 3233 3233 3233 3233 3233 3233 3233 3233 3233 3232 3232 3232 3231 3231 3231 3231 3231 3230 3229 3228 3227 3227 3227 3227 3228 3228 3228 3229 3229 3229 3230 3230 3230 3231 3231 3231 3231 3231 3231 3232 3232 3232 3232 3232 3232 3232 3232 3232 3232
3187 3190 3191 3193 3195 3197 3199 3201 3203 3204 3206 3208 3209 3211 3212 3214 3215 3217 3218 3219 3221 3222 3223 3224 3225 3226 3226 3227 3228 3228 3229 3230 3230 3231 3232 3232 3233 3233 3233 3233 3233 3233 3233 3233 3233 3232 3232 3232 3231 3231 3232 3232 3231 3230 3230 3229 3228 3228 3227 3227 3228 3228 3229 3229 3229 3229 3230 3230 3230 3231 3231 3232 3232 3232 3231 3231 3231 3231 3231 3232 3232 3232 3231 3231 3231
3186 3188 3190 3191 3193 3195 3197 3199 3201 3203 3204 3206 3207 3209 3210 3212 3213 3215 3216 3218 3220 3221 3222 3223 3224 3225 3226 3226 3227 3228 3228 3229 3230 3231 3231 3232 3233 3233 3233 3233 3233 3233 3233 3233 3232 3232 3232 3232 3232 3232 3232 3232 3231 3231 3230 3230 3229 3228 3228 3227 3227 3227 3228 3229 3229 3229 3230 3230 3231 3231 3231 3232 3232 3232 3232 3231 3231 3231 3231 3231 3231 3231 3231 3231 3231
3184 3186 3187 3189 3191 3193 3195 3197 3199 3201 3202 3204 3206 3207 3209 3211 3212 3214 3216 3218 3219 3220 3221 3223 3224 3225 3225 3226 3227 3227 3228 3229 3230 3231 3231 3232 3232 3233 3233 3233 3233 3233 3233 3233 3233 3233 3233 3232 3232 3232 3232 3232 3231 3231 3231 3230 3229 3229 3228 3227 3227 3227 3228 3228 3228 3229 3230 3231 3231 3232 3232 3232 3232 3232 3231 3231 3231 3231 3231 3231 3231 3230 3230 3230 3229
3181 3183 3185 3187 3189 3191 3194 3196 3197 3199 3201 3203 3205 3206 3208 3210 3212 3214 3216 3217 3218 3220 3221 3222 3224 3224 3225 3226 3226 3227 3228 3229 3230 3230 3231 3232 3232 3232 3233 3233 3233 3233 3233 3233 3233 3233 3233 3233 3232 3232 3232 3232 3231 3231 3230 3230 3230 3229 3229 3228 3228 3228 3228 3228 3229 3229 3230 3231 3231 3232 3233 3233 3232 3232 3231 3231 3231 3230 3230 3230 3230 3230 3229 3229 3228
3180 3182 3184 3186 3188 3189 3192 3194 3196 3197 3200 3202 3204 3206 3208 3210 3212 3214 3215 3216 3218 3219 3220 3221 3223 3224 3224 3225 3226 3227 3228 3228 3229 3230 3230 3231 3232 3232 3233 3233 3233 3233 3233 3233 3233 3233 3233 3233 3232 3232 3232 3232 3232 3231 3231 3231 3230 3230 3229 3229 3229 3229 3229 3229 3229 3230 3230 3231 3231 3232 3233 3233 3232 3232 3231 3231 3230 3230 3230 3230 3229 3229 3229 3228 3228
3178 3180 3182 3183 3185 3187 3190 3192 3194 3196 3198 3201 3203 3205 3207 3208 3210 3212 3214 3215 3216 3218 3219 3219 3221 3222 3223 3224 3225 3226 3227 3228 3228 3229 3230 3231 3231 3232 3232 3233 3233 3233 3233 3233 3233 3233 3233 3233 3233 3232 3232 3232 3232 3232 3231 3231 3231 3230 3230 3230 3230 3230 3230 3230 3230 3230 3230 3231 3231 3232 3233 3233 3232 3231 3231 3230 3230 3230 3230 3229 3229 3229 3229 3228 3228
3175 3177 3179 3181 3183 3186 3188 3191 3192 3194 3197 3199 3201 3203 3204 3206 3207 3209 3210 3212 3213 3214 3215 3217 3219 3221 3222 3223 3224 3225 3226 3227 3228 3228 3229 3230 3231 3231 3232 3233 3233 3233 3233 3233 3233 3233 3233 3233 3233 3233 3232 3232 3232 3232 3232 3231 3231 3231 3231 3231 3230 3230 3231 3231 3230 3230 3230 3230 3231 3231 3232 3232 3231 3231 3230 3230 3230 3229 3229 3229 3229 3229 3229 3228 3228
3173 3175 3178 3180 3182 3184 3187 3189 3191 3193 3195 3197 3200 3201 3203 3204 3205 3206 3207 3209 3210 3212 3214 3216 3218 3220 3221 3222 3223 3224 3225 3226 3227 3228 3229 3229 3230 3231 3231 3232 3232 3232 3233 3233 3233 3233 3233 3233 3233 3233 3233 3232 3232 3232 3232 3232 3232 3231 3231 3231 3231 3231 3231 3232 3231 3231 3230 3230 3231 3231 3231 3231 3230 3230 3230 3230 3230 3230 3229 3229 3229 3228 3228 3228 3228
3171 3174 3176 3179 3181 3182 3185 3187 3189 3191 3193 3195 3197 3199 3201 3202 3204 3205 3207 3208 3210 3212 3214 3216 3218 3220 3221 3221 3222 3223 3224 3225 3226 3227 3228 3228 3229 3230 3231 3231 3232 3232 3232 3233 3233 3233 3233 3233 3233 3233 3233 3233 3232 3232 3233 3232 3232 3232 3232 3231 3231 3231 3231 3232 3232 3231 3231 3231 3230 3230 3230 3229 3229 3230 3230 3229 3229 3229 3229 3229 3228 3228 3227 3227 3227
3170 3172 3174 3176 3178 3180 3182 3185 3188 3189 3191 3193 3195 3197 3199 3201 3202 3204 3206 3208 3210 3212 3214 3215 3217 3218 3219 3220 3221 3222 3223 3224 3225 3226 3226 3227 3228 3229 3230 3230 3231 3231 3232 3232 3233 3233 3233 3233 3233 3233 3233 3233 3233 3233 3233 3233 3232 3232 3232 3232 3232 3232 3232 3232 3232 3232 3231 3231 3230 3230 3230 3229 3229 3230 3229 3229 3229 3229 3228 3228 3228 3227 3226 3226 3226
3169 3170 3172 3174 3176 3178 3180 3183 3185 3187 3189 3191 3193 3195 3197 3199 3201 3202 3204 3206 3208 3210 3212 3214 3215 3216 3218 3219 3219 3220 3222 3223 3223 3224 3225 3226 3227 3228 3229 3230 3230 3231 3231 3232 3232 3232 3232 3233 3233 3233 3233 3234 3234 3234 3234 3233 3233 3233 3233 3233 3232 3232 3232 3232 3232 3232 3232 3232 3231 3230 3230 3229 3229 3229 3229 3229 3228 3228 3228 3228 3227 3227 3226 3226 3226
3167 3169 3171 3172 3174 3176 3178 3180 3182 3185 3187 3189 3191 3193 3196 3197 3199 3200 3202 3205 3206 3208 3210 3211 3212 3214 3216 3217 3218 3219 3220 3221 3222 3223 3223 3224 3225 3226 3228 3229 3229 3230 3230 3231 3231 3232 3232 3232 3233 3233 3233 3234 3234 3234 3234 3234 3234 3234 3234 3234 3233 3233 3233 3232 3233 3232 3232 3232 3232 3231 3231 3230 3230 3230 3229 3229 3229 3228 3228 3228 3227 3227 3227 3226 3225
3165 3167 3168 3170 3171 3173 3175 3178 3180 3182 3184 3186 3188 3191 3193 3195 3197 3199 3201 3203 3205 3206 3207 3209 3210 3212 3214 3216 3217 3218 3219 3220 3221 3221 3222 3223 3224 3225 3226 3227 3228 3229 3230 3230 3230 3231 3232 3232 3232 3233 3233 3233 3234 3234 3234 3234 3234 3235 3234 3234 3234 3233 3233 3233 3233 3233 3233 3232 3232 3232 3231 3231 3231 3230 3230 3230 3229 3229 3228 3228 3227 3227 3227 3226 3226